Retour au catalogue

STARLINK-35633

ActifCommunicationsVLEO
NORAD 66162·PAYLOAD·🇺🇸 United States

Lancé Oct 25, 2025 depuis Cape Canaveral Space Force Station

Loading…

Prochains Passages (prochaines 24 heures)

TLE

FraisSource: CelesTrak SupGP

Époque: Sep 14, 2026, 20:50 UTC

1 66162C 25240S   26257.86854167  .00053207  00000+0  15723-2 0  2574
2 66162  53.1570 261.8812 0001289  91.5450 269.7107 15.34357465    12

Suivez STARLINK-35633 en temps réel avec AllMySat

Download on the App Store